Change the Weather History Date:

Friday, October 12, 2012

  Actual Average Record
Temperature  
Mean Temperature 63 °F -  
Max Temperature 73 °F 75 °F 99 °F (2011)
Min Temperature 54 °F 49 °F 37 °F (2008)
Degree Days  
Heating Degree Days 2    
Growing Degree Days 13 (Base 50)    
Moisture  
Dew Point 52 °F    
Average Humidity 70    
Maximum Humidity 86    
Minimum Humidity 45    
Precipitation  
Precipitation 0.01 in - - ()
Sea Level Pressure  
Sea Level Pressure 30.08 in    
Wind  
Wind Speed 2 mph (NE)    
Max Wind Speed 9 mph    
Max Gust Speed -    
Visibility 10 miles    
Events      
Averages and records for this station are not official NWS values.
T = Trace of Precipitation, MM = Missing Value Source: NWS Daily Summary

Daily Weather History Graph

Daily Weather History Graph

Search for Another Location

Airport or City:

Trip Planner

Search our weather history database for the weather conditions in past years. The results will help you decide how hot, cold, wet, or windy it might be!

Date:

Astronomy

Oct. 12, 2012 Rise Set
Actual Time 6:52 AM PDT 6:18 PM PDT
Civil Twilight 6:27 AM PDT 6:43 PM PDT
Nautical Twilight 5:58 AM PDT 7:12 PM PDT
Astronomical Twilight 5:29 AM PDT 7:41 PM PDT
Moon 3:48 AM PDT (10/12) 4:24 PM PDT (10/12)
Length of Visible Light 12h 16m
Length of Day
11h 26m
Waning Crescent, 10% of the Moon is Illuminated
Oct 12
Waning Crescent
Oct 15
New
Oct 21
First Quarter
Oct 29
Full
Nov 6
Last Quarter

Hourly Weather History & Observations

Time (PDT) Temp. Dew Point Humidity Pressure Visibility Wind Dir Wind Speed Gust Speed Precip Events Conditions
12:54 AM 57.0 °F 52.0 °F 83% 29.98 in 10.0 mi Calm Calm - 0.01 in   Mostly Cloudy
1:54 AM 57.0 °F 52.0 °F 83% 29.99 in 10.0 mi Calm Calm - N/A   Mostly Cloudy
2:54 AM 57.0 °F 52.0 °F 83% 29.99 in 10.0 mi Calm Calm - 0.00 in   Overcast
3:54 AM 57.0 °F 52.0 °F 83% 29.99 in 10.0 mi NNE 3.5 mph - N/A   Overcast
4:54 AM 55.9 °F 51.1 °F 84% 30.02 in 10.0 mi NE 5.8 mph - N/A   Overcast
5:55 AM 55.0 °F 50.0 °F 83% 30.04 in 10.0 mi Calm Calm - N/A   Mostly Cloudy
6:54 AM 54.0 °F 50.0 °F 86% 30.05 in 10.0 mi ENE 3.5 mph - N/A   Scattered Clouds
7:55 AM 57.0 °F 51.1 °F 81% 30.08 in 10.0 mi Calm Calm - N/A   Scattered Clouds
8:55 AM 62.1 °F 53.1 °F 72% 30.10 in 10.0 mi ENE 3.5 mph - N/A   Partly Cloudy
9:54 AM 64.9 °F 55.0 °F 70% 30.11 in 10.0 mi Calm Calm - N/A   Scattered Clouds
10:54 AM 68.0 °F 54.0 °F 61% 30.12 in 10.0 mi Variable 3.5 mph - N/A   Mostly Cloudy
11:54 AM 70.0 °F 53.1 °F 55% 30.12 in 10.0 mi SW 5.8 mph - N/A   Mostly Cloudy
12:54 PM 68.0 °F 55.0 °F 63% 30.12 in 10.0 mi Variable 5.8 mph - N/A   Mostly Cloudy
1:54 PM 71.1 °F 50.0 °F 47% 30.11 in 10.0 mi WSW 5.8 mph - N/A   Mostly Cloudy
2:54 PM 71.1 °F 48.9 °F 45% 30.10 in 10.0 mi SW 8.1 mph - N/A   Mostly Cloudy
3:54 PM 72.0 °F 51.1 °F 48% 30.10 in 10.0 mi Variable 5.8 mph - N/A   Scattered Clouds
4:54 PM 71.1 °F 51.1 °F 49% 30.10 in 10.0 mi WSW 9.2 mph - N/A   Scattered Clouds
5:54 PM 68.0 °F 53.1 °F 59% 30.11 in 10.0 mi Calm Calm - N/A   Mostly Cloudy
6:54 PM 66.0 °F 54.0 °F 65% 30.12 in 10.0 mi Calm Calm - N/A   Overcast
7:54 PM 64.9 °F 53.1 °F 65% 30.13 in 10.0 mi Calm Calm - N/A   Partly Cloudy
9:54 PM 61.0 °F 53.1 °F 75% 30.14 in 10.0 mi ENE 4.6 mph - N/A   Clear
10:54 PM 59.0 °F 52.0 °F 78% 30.15 in 10.0 mi NE 3.5 mph - N/A   Clear
11:54 PM 57.0 °F 52.0 °F 83% 30.15 in 10.0 mi NE 4.6 mph - N/A   Clear